Weather History for KN03 - February, 2014

Change the Weather History Date:

Monday, February 17, 2014

  Actual Average (KBGM) Record (KBGM)
Temperature  
Mean Temperature 6 °F 25 °F  
Max Temperature 24 °F 33 °F 55 °F (1981)
Min Temperature -11 °F 18 °F -15 °F (1979)
Degree Days  
Heating Degree Days 58 40  
Month to date heating degree days 702  
Since 1 July heating degree days 4774  
Cooling Degree Days 0 0  
Month to date cooling degree days 0  
Year to date cooling degree days 0  
Moisture  
Dew Point 1 °F    
Average Humidity 69    
Maximum Humidity 92    
Minimum Humidity 43    
Precipitation  
Precipitation 0.00 in 0.08 in 1.05 in (1954)
Month to date precipitation 1.37  
Year to date precipitation 3.82  
Snow  
Snow 0.00 in 0.60 in 12.80 in (2003)
Month to date snowfall 10.3  
Since 1 July snowfall 57.1  
Snow Depth -    
Sea Level Pressure  
Sea Level Pressure 30.27 in    
Wind  
Wind Speed 2 mph (SW)    
Max Wind Speed 9 mph    
Max Gust Speed -    
Visibility 10 miles    
Events Snow    
T = Trace of Precipitation, MM = Missing Value Source: NWS Daily Summary

Daily Weather History Graph

Daily Weather History Graph

Search for Another Location

Airport or City:

Trip Planner

Search our weather history database for the weather conditions in past years. The results will help you decide how hot, cold, wet, or windy it might be!

Date:

Astronomy

Feb. 17, 2014 Rise Set
Actual Time 6:58 AM EST 5:39 PM EST
Civil Twilight 6:30 AM EST 6:08 PM EST
Nautical Twilight 5:57 AM EST 6:41 PM EST
Astronomical Twilight 5:24 AM EST 7:13 PM EST
Moon 8:36 PM EST (2/17) 7:54 AM EST (2/17)
Length of Visible Light 11h 38m
Length of Day
10h 40m
Waning Gibbous, 93% of the Moon is Illuminated
Feb 17
Waning Gibbous
Feb 22
Last Quarter
Mar 1
New
Mar 8
First Quarter
Mar 16
Full

Hourly Weather History & Observations

Time (EST) Temp. Windchill Dew Point Humidity Pressure Visibility Wind Dir Wind Speed Gust Speed Precip Events Conditions
12:15 AM 12.2 °F 1.7 °F 10.4 °F 92% 30.16 in 7.0 mi West 6.9 mph - N/A Snow Light Snow
12:35 AM 12.2 °F 6.1 °F 8.6 °F 85% 30.17 in 10.0 mi WNW 3.5 mph - N/A   Scattered Clouds
12:55 AM 10.4 °F 4.0 °F 8.6 °F 92% 30.19 in 10.0 mi WNW 3.5 mph - N/A   Clear
1:15 AM 8.6 °F - 5.0 °F 85% 30.20 in 10.0 mi Calm Calm - N/A   Clear
1:35 AM 6.8 °F - 5.0 °F 92% 30.21 in 10.0 mi Calm Calm - N/A   Clear
1:55 AM 5.0 °F - 3.2 °F 92% 30.22 in 10.0 mi Calm Calm - N/A   Clear
2:15 AM 3.2 °F - 1.4 °F 92% 30.22 in 10.0 mi Calm Calm - N/A   Clear
2:35 AM 1.4 °F - -0.4 °F 92% 30.23 in 10.0 mi Calm Calm - N/A   Clear
2:55 AM -0.4 °F - -4.0 °F 85% 30.23 in 10.0 mi Calm Calm - N/A   Clear
3:15 AM -2.2 °F - -4.0 °F 92% 30.24 in 10.0 mi Calm Calm - N/A   Clear
3:35 AM -2.2 °F - -5.8 °F 85% 30.24 in 10.0 mi Calm Calm - N/A   Clear
3:55 AM -4.0 °F - -5.8 °F 92% 30.25 in 10.0 mi Calm Calm - N/A   Clear
4:15 AM -4.0 °F - -7.6 °F 85% 30.25 in 10.0 mi Calm Calm - N/A   Clear
4:35 AM -4.0 °F - -7.6 °F 85% 30.27 in 10.0 mi Calm Calm - N/A   Clear
4:55 AM -7.6 °F - -9.4 °F 92% 30.27 in 10.0 mi Calm Calm - N/A   Clear
5:15 AM -9.4 °F - -13.0 °F 84% 30.29 in 10.0 mi Calm Calm - N/A   Clear
5:35 AM -7.6 °F - -11.2 °F 84% 30.30 in 10.0 mi Calm Calm - N/A   Clear
5:55 AM -9.4 °F - -13.0 °F 84% 30.31 in 10.0 mi Calm Calm - N/A   Clear
6:15 AM -9.4 °F - -13.0 °F 84% 30.31 in 10.0 mi Calm Calm - N/A   Clear
6:35 AM -11.2 °F - -14.8 °F 84% 30.31 in 10.0 mi Calm Calm - N/A   Clear
6:55 AM -7.6 °F - -13.0 °F 77% 30.32 in 10.0 mi Calm Calm - N/A   Clear
7:15 AM -9.4 °F - -13.0 °F 84% 30.34 in 10.0 mi Calm Calm - N/A   Clear
7:35 AM -9.4 °F - -13.0 °F 84% 30.34 in 2.5 mi Calm Calm - N/A   Clear
7:55 AM -5.8 °F - -9.4 °F 84% 30.35 in 10.0 mi Calm Calm - N/A   Clear
8:15 AM -5.8 °F - -7.6 °F 92% 30.36 in 10.0 mi Calm Calm - N/A   Clear
8:35 AM -4.0 °F - -7.6 °F 85% 30.36 in 10.0 mi Calm Calm - N/A   Clear
8:55 AM -0.4 °F - -2.2 °F 92% 30.36 in 10.0 mi Calm Calm - N/A   Clear
9:15 AM 3.2 °F - 1.4 °F 92% 30.37 in 10.0 mi Calm Calm - N/A   Clear
9:35 AM 5.0 °F - 3.2 °F 92% 30.37 in 10.0 mi Calm Calm - N/A   Clear
9:55 AM 8.6 °F - 5.0 °F 85% 30.37 in 10.0 mi Calm Calm - N/A   Clear
10:15 AM 10.4 °F - 8.6 °F 92% 30.38 in 10.0 mi Calm Calm - N/A   Clear
10:35 AM 14.0 °F 5.1 °F 6.8 °F 73% 30.39 in 10.0 mi WSW 5.8 mph - N/A   Clear
10:55 AM 12.2 °F 4.3 °F 5.0 °F 73% 30.39 in 10.0 mi SW 4.6 mph - N/A   Clear
11:15 AM 14.0 °F 2.0 °F 6.8 °F 73% 30.39 in 10.0 mi SW 9.2 mph - N/A   Clear
11:35 AM 15.8 °F 5.1 °F 6.8 °F 68% 30.39 in 10.0 mi SW 8.1 mph - N/A   Clear
11:55 AM 15.8 °F 6.1 °F 6.8 °F 68% 30.39 in 10.0 mi SW 6.9 mph - N/A   Clear
12:15 PM 17.6 °F 12.3 °F 5.0 °F 58% 30.37 in 10.0 mi WSW 3.5 mph - N/A   Clear
12:35 PM 17.6 °F 10.7 °F 6.8 °F 63% 30.37 in 10.0 mi SW 4.6 mph - N/A   Clear
12:55 PM 17.6 °F 12.3 °F 5.0 °F 58% 30.36 in 10.0 mi South 3.5 mph - N/A   Clear
1:15 PM 19.4 °F 14.3 °F 6.8 °F 58% 30.36 in 10.0 mi SSW 3.5 mph - N/A   Clear
1:35 PM 19.4 °F - 5.0 °F 54% 30.36 in 10.0 mi Calm Calm - N/A   Clear
1:55 PM 19.4 °F - 5.0 °F 54% 30.34 in 10.0 mi Calm Calm - N/A   Clear
2:15 PM 21.2 °F - 5.0 °F 50% 30.33 in 10.0 mi Calm Calm - N/A   Clear
2:35 PM 21.2 °F - 5.0 °F 50% 30.32 in 10.0 mi Calm Calm - N/A   Clear
2:55 PM 21.2 °F - 3.2 °F 46% 30.31 in 10.0 mi Calm Calm - N/A   Clear
3:15 PM 21.2 °F - 3.2 °F 46% 30.31 in 10.0 mi Calm Calm - N/A   Clear
3:35 PM 21.2 °F - 3.2 °F 46% 30.29 in 10.0 mi Calm Calm - N/A   Clear
3:55 PM 21.2 °F - 3.2 °F 46% 30.29 in 10.0 mi Calm Calm - N/A   Clear
4:15 PM 23.0 °F - 3.2 °F 43% 30.29 in 10.0 mi Calm Calm - N/A   Clear
4:35 PM 21.2 °F - 3.2 °F 46% 30.29 in 10.0 mi Calm Calm - N/A   Clear
4:55 PM 23.0 °F - 3.2 °F 43% 30.29 in 10.0 mi Calm Calm - N/A   Clear
5:15 PM 21.2 °F - 5.0 °F 50% 30.27 in 10.0 mi Calm Calm - N/A   Clear
5:35 PM 17.6 °F - 6.8 °F 63% 30.27 in 10.0 mi Calm Calm - N/A   Clear
5:55 PM 17.6 °F - 6.8 °F 63% 30.26 in 10.0 mi Calm Calm - N/A   Clear
6:15 PM 17.6 °F - 6.8 °F 63% 30.26 in 10.0 mi Calm Calm - N/A   Clear
6:35 PM 15.8 °F - 6.8 °F 68% 30.25 in 10.0 mi Calm Calm - N/A   Clear
6:55 PM 17.6 °F - 5.0 °F 58% 30.24 in 10.0 mi Calm Calm - N/A   Clear
7:15 PM 19.4 °F - 6.8 °F 58% 30.23 in 10.0 mi Calm Calm - N/A   Clear
7:35 PM 17.6 °F - 6.8 °F 63% 30.21 in 10.0 mi Calm Calm - N/A   Clear
7:55 PM 17.6 °F - 6.8 °F 63% 30.19 in 10.0 mi Calm Calm - N/A   Clear
8:15 PM 19.4 °F - 5.0 °F 54% 30.18 in 10.0 mi Calm Calm - N/A   Clear
8:35 PM 19.4 °F - 6.8 °F 58% 30.16 in 10.0 mi Calm Calm - N/A   Clear
8:55 PM 17.6 °F - 5.0 °F 58% 30.15 in 10.0 mi Calm Calm - N/A   Clear
9:15 PM 21.2 °F - 5.0 °F 50% 30.15 in 10.0 mi Calm Calm - N/A   Clear
9:35 PM 23.0 °F 18.4 °F 3.2 °F 43% 30.13 in 10.0 mi SSE 3.5 mph - N/A   Scattered Clouds
9:55 PM 23.0 °F 17.0 °F 3.2 °F 43% 30.13 in 10.0 mi SE 4.6 mph - N/A   Mostly Cloudy
10:15 PM 23.0 °F - 3.2 °F 43% 30.13 in 10.0 mi Calm Calm - N/A   Scattered Clouds
10:35 PM 23.0 °F 17.0 °F 5.0 °F 46% 30.13 in 10.0 mi ENE 4.6 mph - N/A   Mostly Cloudy
10:55 PM 23.0 °F 15.8 °F 5.0 °F 46% 30.12 in 10.0 mi East 5.8 mph - N/A   Overcast
11:15 PM 23.0 °F - 5.0 °F 46% 30.11 in 10.0 mi Calm Calm - N/A   Mostly Cloudy
11:35 PM 24.8 °F - 5.0 °F 43% 30.09 in 10.0 mi Calm Calm - N/A   Mostly Cloudy
11:55 PM 24.8 °F 19.1 °F 5.0 °F 43% 30.08 in 10.0 mi SE 4.6 mph - N/A   Overcast